Weather History for Millville, NJ

Change the Weather History Date:

Tuesday, October 1, 2013

  Actual Average Record
Temperature  
Mean Temperature 64 °F -  
Max Temperature 82 °F 70 °F 85 °F (1954)
Min Temperature 46 °F 51 °F 35 °F (1993)
Degree Days  
Heating Degree Days 2    
Growing Degree Days 14 (Base 50)    
Moisture  
Dew Point 54 °F    
Average Humidity 81    
Maximum Humidity 100    
Minimum Humidity 45    
Precipitation  
Precipitation 0.00 in - - ()
Sea Level Pressure  
Sea Level Pressure 30.01 in    
Wind  
Wind Speed 2 mph (West)    
Max Wind Speed 14 mph    
Max Gust Speed 17 mph    
Visibility 10 miles    
Events      
Averages and records for this station are not official NWS values.
T = Trace of Precipitation, MM = Missing Value Source: NWS Daily Summary

Daily Weather History Graph

Daily Weather History Graph

Search for Another Location

Airport:

Trip Planner

Search our weather history database for the weather conditions in past years. The results will help you decide how hot, cold, wet, or windy it might be!

Date:

Astronomy

Oct. 01, 2013 Rise Set
Actual Time 6:56 AM EDT 6:42 PM EDT
Civil Twilight 6:29 AM EDT 7:09 PM EDT
Nautical Twilight 5:58 AM EDT 7:40 PM EDT
Astronomical Twilight 5:27 AM EDT 8:11 PM EDT
Moon 3:29 AM EDT (10/1) 4:44 PM EDT (10/1)
Length of Visible Light 12h 39m
Length of Day
11h 45m
Waning Crescent, 12% of the Moon is Illuminated
Oct 1
Waning Crescent
Oct 4
New
Oct 11
First Quarter
Oct 18
Full
Oct 26
Last Quarter

Hourly Weather History & Observations

Time (EDT) Temp. Heat Index Dew Point Humidity Pressure Visibility Wind Dir Wind Speed Gust Speed Precip Events Conditions
12:54 AM 48.9 °F - 48.0 °F 97% 30.03 in 10.0 mi Calm Calm - N/A   Clear
1:25 AM 46.4 °F - 46.4 °F 100% 30.03 in 10.0 mi Calm Calm - N/A   Scattered Clouds
1:34 AM 46.4 °F - 46.4 °F 100% 30.03 in 10.0 mi Calm Calm - N/A   Mostly Cloudy
1:54 AM 48.0 °F - 46.9 °F 96% 30.03 in 10.0 mi Calm Calm - N/A   Overcast
2:24 AM 46.4 °F - 46.4 °F 100% 30.03 in 10.0 mi Calm Calm - N/A   Scattered Clouds
2:54 AM 46.9 °F - 46.0 °F 97% 30.02 in 10.0 mi Calm Calm - N/A   Clear
3:54 AM 46.9 °F - 46.0 °F 97% 30.02 in 10.0 mi Calm Calm - N/A   Clear
4:54 AM 48.0 °F - 46.9 °F 96% 30.02 in 10.0 mi Calm Calm - N/A   Mostly Cloudy
5:54 AM 48.9 °F - 48.0 °F 97% 30.03 in 10.0 mi Calm Calm - N/A   Mostly Cloudy
6:54 AM 46.9 °F - 46.0 °F 97% 30.04 in 10.0 mi West 3.5 mph - N/A   Clear
7:54 AM 53.1 °F - 53.1 °F 100% 30.05 in 8.0 mi West 3.5 mph - N/A   Clear
8:54 AM 62.1 °F - 59.0 °F 90% 30.05 in 10.0 mi West 4.6 mph - N/A   Clear
9:54 AM 68.0 °F - 59.0 °F 73% 30.05 in 10.0 mi West 6.9 mph - N/A   Clear
10:54 AM 73.0 °F - 59.0 °F 61% 30.04 in 10.0 mi Variable 5.8 mph - N/A   Clear
11:54 AM 75.9 °F - 60.1 °F 58% 30.02 in 9.0 mi West 8.1 mph - N/A   Clear
12:54 PM 79.0 °F - 60.1 °F 52% 30.00 in 10.0 mi Variable 5.8 mph - N/A   Clear
1:54 PM 80.1 °F 80.7 °F 59.0 °F 48% 29.98 in 10.0 mi West 13.8 mph 17.3 mph N/A   Mostly Cloudy
2:54 PM 81.0 °F 81.6 °F 60.1 °F 49% 29.96 in 10.0 mi WNW 9.2 mph - N/A   Clear
3:54 PM 81.0 °F 81.1 °F 57.9 °F 45% 29.95 in 10.0 mi WNW 11.5 mph - N/A   Clear
4:54 PM 80.1 °F 80.6 °F 57.9 °F 47% 29.95 in 10.0 mi West 8.1 mph - N/A   Clear
5:54 PM 77.0 °F - 59.0 °F 54% 29.95 in 10.0 mi West 4.6 mph - N/A   Partly Cloudy
6:54 PM 68.0 °F - 60.1 °F 76% 29.96 in 10.0 mi Calm Calm - N/A   Clear
7:54 PM 64.0 °F - 60.1 °F 87% 29.97 in 10.0 mi Calm Calm - N/A   Clear
8:54 PM 61.0 °F - 59.0 °F 93% 29.98 in 10.0 mi Calm Calm - N/A   Clear
9:54 PM 59.0 °F - 57.9 °F 96% 29.99 in 9.0 mi Calm Calm - N/A   Clear
10:54 PM 57.9 °F - 57.0 °F 97% 29.99 in 8.0 mi Calm Calm - N/A   Scattered Clouds
11:54 PM 61.0 °F - 59.0 °F 93% 29.99 in 10.0 mi WSW 4.6 mph - N/A   Partly Cloudy